Time,TemperatureF,DewpointF,PressureIn,WindDirection,WindDirectionDegrees,WindSpeedMPH,WindSpeedGustMPH,Humidity,HourlyPrecipIn,Conditions,Clouds,dailyrainin,SoftwareType,DateUTC
2013-10-02 00:13:00,72.0,63.0,29.97,South,183,2.0,7.0,74,0.00,,,0.00,,2013-10-02 05:13:00,
2013-10-02 00:23:00,72.0,63.0,29.97,South,183,2.0,7.0,74,0.00,,,0.00,,2013-10-02 05:23:00,
2013-10-02 00:33:00,72.0,63.0,29.97,South,183,2.0,7.0,74,0.00,,,0.00,,2013-10-02 05:33:00,
2013-10-02 00:53:00,71.0,63.0,29.98,South,169,4.0,5.0,76,0.00,,,0.00,,2013-10-02 05:53:00,
2013-10-02 01:12:00,71.0,63.0,29.98,SE,135,3.0,7.0,76,0.00,,,0.00,,2013-10-02 06:12:00,
2013-10-02 01:22:00,71.0,63.0,29.98,SE,135,3.0,7.0,76,0.00,,,0.00,,2013-10-02 06:22:00,
2013-10-02 01:52:00,71.0,63.0,29.98,SE,132,5.0,9.0,77,0.00,,,0.00,,2013-10-02 06:52:00,
2013-10-02 02:02:00,71.0,63.0,29.98,SE,132,5.0,9.0,77,0.00,,,0.00,,2013-10-02 07:02:00,
2013-10-02 02:22:00,71.0,64.0,29.98,SE,128,3.0,5.0,78,0.00,,,0.00,,2013-10-02 07:22:00,
2013-10-02 02:32:00,71.0,64.0,29.98,SE,128,3.0,5.0,78,0.00,,,0.00,,2013-10-02 07:32:00,
2013-10-02 02:52:00,71.0,64.0,29.99,SW,233,0.0,4.0,78,0.00,,,0.00,,2013-10-02 07:52:00,
2013-10-02 03:03:00,71.0,64.0,29.99,SW,233,0.0,4.0,78,0.00,,,0.00,,2013-10-02 08:03:00,
2013-10-02 03:11:00,71.0,64.0,29.99,SW,233,0.0,4.0,78,0.00,,,0.00,,2013-10-02 08:11:00,
2013-10-02 03:22:00,71.0,64.0,29.99,SW,233,0.0,4.0,78,0.00,,,0.00,,2013-10-02 08:22:00,
2013-10-02 03:52:00,70.0,63.0,29.98,SE,135,0.0,1.0,79,0.00,,,0.00,,2013-10-02 08:52:00,
2013-10-02 04:11:00,69.0,63.0,29.97,SW,222,0.0,1.0,81,0.00,,,0.00,,2013-10-02 09:11:00,
2013-10-02 04:21:00,69.0,63.0,29.97,SW,222,0.0,1.0,81,0.00,,,0.00,,2013-10-02 09:21:00,
2013-10-02 04:54:00,69.0,63.0,29.97,South,176,0.0,3.0,80,0.00,,,0.00,,2013-10-02 09:54:00,
2013-10-02 05:23:00,68.0,62.0,29.97,SSE,155,0.0,2.0,82,0.00,,,0.00,,2013-10-02 10:23:00,
2013-10-02 05:33:00,68.0,62.0,29.97,SSE,155,0.0,2.0,82,0.00,,,0.00,,2013-10-02 10:33:00,
2013-10-02 05:53:00,68.0,62.0,29.97,SSE,155,0.0,0.0,82,0.00,,,0.00,,2013-10-02 10:53:00,
2013-10-02 06:03:00,68.0,62.0,29.97,SSE,155,0.0,0.0,82,0.00,,,0.00,,2013-10-02 11:03:00,
2013-10-02 06:12:00,68.0,62.0,29.97,SSE,155,0.0,0.0,82,0.00,,,0.00,,2013-10-02 11:12:00,
2013-10-02 06:21:00,68.0,62.0,29.97,SSE,155,0.0,0.0,82,0.00,,,0.00,,2013-10-02 11:21:00,
2013-10-02 06:52:00,68.0,62.0,29.97,SSE,155,0.0,0.0,82,0.00,,,0.00,,2013-10-02 11:52:00,
2013-10-02 07:12:00,68.0,62.0,29.97,SSE,155,0.0,0.0,82,0.00,,,0.00,,2013-10-02 12:12:00,
2013-10-02 07:22:00,68.0,62.0,29.96,SSE,155,0.0,0.0,82,0.00,,,0.00,,2013-10-02 12:22:00,
2013-10-02 07:32:00,68.0,62.0,29.96,SSE,155,0.0,0.0,82,0.00,,,0.00,,2013-10-02 12:32:00,
2013-10-02 07:52:00,68.0,62.0,29.96,SSE,155,0.0,0.0,82,0.00,,,0.00,,2013-10-02 12:52:00,
2013-10-02 08:22:00,68.0,62.0,29.97,SSE,155,0.0,0.0,82,0.00,,,0.00,,2013-10-02 13:22:00,
2013-10-02 08:52:00,68.0,66.0,29.97,SSE,166,2.0,7.0,94,0.00,,,0.00,,2013-10-02 13:52:00,
2013-10-02 09:02:00,68.0,66.0,29.97,SSE,166,2.0,7.0,94,0.00,,,0.00,,2013-10-02 14:02:00,
2013-10-02 09:22:00,69.0,67.0,29.98,SSE,149,4.0,9.0,93,0.00,,,0.00,,2013-10-02 14:22:00,
2013-10-02 09:32:00,69.0,67.0,29.98,SSE,149,4.0,9.0,93,0.00,,,0.00,,2013-10-02 14:32:00,
2013-10-02 09:52:00,69.0,67.0,29.98,SSE,149,4.0,9.0,93,0.00,,,0.00,,2013-10-02 14:52:00,
2013-10-02 10:22:00,72.0,68.0,29.98,ESE,110,7.0,12.0,87,0.00,,,0.00,,2013-10-02 15:22:00,
2013-10-02 10:54:00,74.0,68.0,29.98,SE,124,4.0,15.0,83,0.00,,,0.00,,2013-10-02 15:54:00,
2013-10-02 11:12:00,75.0,69.0,29.98,ENE,59,6.0,14.0,81,0.00,,,0.00,,2013-10-02 16:12:00,
2013-10-02 11:23:00,75.0,69.0,29.98,ENE,59,6.0,14.0,81,0.00,,,0.00,,2013-10-02 16:23:00,
2013-10-02 11:52:00,76.0,69.0,29.98,SW,222,6.0,15.0,78,0.00,,,0.00,,2013-10-02 16:52:00,
2013-10-02 12:23:00,78.0,69.0,29.97,SW,215,4.0,13.0,74,0.00,,,0.00,,2013-10-02 17:23:00,
2013-10-02 12:33:00,78.0,69.0,29.97,SW,215,4.0,13.0,74,0.00,,,0.00,,2013-10-02 17:33:00,
2013-10-02 12:52:00,79.0,69.0,29.96,SE,141,14.0,14.0,71,0.00,,,0.00,,2013-10-02 17:52:00,
2013-10-02 13:02:00,79.0,69.0,29.96,SE,141,14.0,14.0,71,0.00,,,0.00,,2013-10-02 18:02:00,
2013-10-02 13:12:00,79.0,69.0,29.96,SE,141,14.0,14.0,71,0.00,,,0.00,,2013-10-02 18:12:00,
2013-10-02 13:21:00,80.0,68.0,29.94,SE,128,4.0,18.0,68,0.00,,,0.00,,2013-10-02 18:21:00,
2013-10-02 13:32:00,80.0,68.0,29.94,SE,128,4.0,18.0,68,0.00,,,0.00,,2013-10-02 18:32:00,
2013-10-02 13:52:00,81.0,69.0,29.92,SSW,205,5.0,13.0,66,0.00,,,0.00,,2013-10-02 18:52:00,
2013-10-02 14:02:00,81.0,69.0,29.92,SSW,205,5.0,13.0,66,0.00,,,0.00,,2013-10-02 19:02:00,
2013-10-02 14:11:00,81.0,69.0,29.92,SSW,205,5.0,13.0,66,0.00,,,0.00,,2013-10-02 19:11:00,
2013-10-02 14:22:00,81.0,69.0,29.92,SSW,205,5.0,13.0,66,0.00,,,0.00,,2013-10-02 19:22:00,
2013-10-02 14:52:00,85.0,69.0,29.90,SE,131,8.0,13.0,58,0.00,,,0.00,,2013-10-02 19:52:00,
2013-10-02 15:22:00,85.0,68.0,29.89,WSW,238,5.0,13.0,57,0.00,,,0.00,,2013-10-02 20:22:00,
2013-10-02 15:32:00,85.0,68.0,29.89,WSW,238,5.0,13.0,57,0.00,,,0.00,,2013-10-02 20:32:00,
2013-10-02 15:52:00,85.0,68.0,29.88,SE,124,7.0,12.0,57,0.00,,,0.00,,2013-10-02 20:52:00,
2013-10-02 16:22:00,85.0,67.0,29.86,SSW,210,5.0,15.0,55,0.00,,,0.00,,2013-10-02 21:22:00,
2013-10-02 16:34:00,85.0,67.0,29.86,SSW,210,5.0,15.0,55,0.00,,,0.00,,2013-10-02 21:34:00,
2013-10-02 16:55:00,85.0,67.0,29.86,SSW,210,5.0,15.0,55,0.00,,,0.00,,2013-10-02 21:55:00,
2013-10-02 17:13:00,86.0,67.0,29.86,SW,215,7.0,12.0,54,0.00,,,0.00,,2013-10-02 22:13:00,
2013-10-02 17:24:00,86.0,67.0,29.86,SW,215,7.0,12.0,54,0.00,,,0.00,,2013-10-02 22:24:00,
2013-10-02 17:33:00,86.0,67.0,29.86,SW,215,7.0,12.0,54,0.00,,,0.00,,2013-10-02 22:33:00,
2013-10-02 18:22:00,85.0,68.0,29.85,South,184,2.0,11.0,57,0.00,,,0.00,,2013-10-02 23:22:00,
2013-10-02 18:34:00,85.0,68.0,29.85,South,184,2.0,11.0,57,0.00,,,0.00,,2013-10-02 23:34:00,
2013-10-02 18:52:00,84.0,68.0,29.85,SE,141,8.0,12.0,58,0.00,,,0.00,,2013-10-02 23:52:00,
2013-10-02 19:22:00,82.0,68.0,29.85,SE,143,8.0,10.0,63,0.00,,,0.00,,2013-10-03 00:22:00,
2013-10-02 19:52:00,81.0,68.0,29.85,South,176,5.0,10.0,65,0.00,,,0.00,,2013-10-03 00:52:00,
2013-10-02 20:11:00,80.0,68.0,29.85,SSW,203,3.0,10.0,66,0.00,,,0.00,,2013-10-03 01:11:00,
2013-10-02 20:22:00,80.0,68.0,29.85,SSW,203,3.0,10.0,66,0.00,,,0.00,,2013-10-03 01:22:00,
2013-10-02 20:52:00,79.0,68.0,29.85,SE,135,4.0,11.0,69,0.00,,,0.00,,2013-10-03 01:52:00,
2013-10-02 21:11:00,78.0,68.0,29.86,SE,128,2.0,5.0,71,0.00,,,0.00,,2013-10-03 02:11:00,
2013-10-02 21:22:00,78.0,68.0,29.86,SE,128,2.0,5.0,71,0.00,,,0.00,,2013-10-03 02:22:00,
2013-10-02 21:32:00,78.0,68.0,29.86,SE,128,2.0,5.0,71,0.00,,,0.00,,2013-10-03 02:32:00,
2013-10-02 21:42:00,78.0,68.0,29.86,SE,128,2.0,5.0,71,0.00,,,0.00,,2013-10-03 02:42:00,
2013-10-02 22:22:00,76.0,67.0,29.87,ESE,108,0.0,9.0,75,0.00,,,0.00,,2013-10-03 03:22:00,
2013-10-02 22:35:00,76.0,67.0,29.87,ESE,108,0.0,9.0,75,0.00,,,0.00,,2013-10-03 03:35:00,
2013-10-02 22:44:00,76.0,67.0,29.87,ESE,108,0.0,9.0,75,0.00,,,0.00,,2013-10-03 03:44:00,
2013-10-02 22:54:00,76.0,67.0,29.87,ESE,108,0.0,9.0,75,0.00,,,0.00,,2013-10-03 03:54:00,
2013-10-02 23:24:00,75.0,67.0,29.87,SW,233,4.0,10.0,77,0.00,,,0.00,,2013-10-03 04:24:00,
2013-10-02 23:34:00,75.0,67.0,29.87,SW,233,4.0,10.0,77,0.00,,,0.00,,2013-10-03 04:34:00,
2013-10-02 23:53:00,75.0,67.0,29.87,SW,233,4.0,10.0,77,0.00,,,0.00,,2013-10-03 04:53:00,